Location: Unspecified
(43.8044°N, 11.0278°E)
Time: 19:03:26
(UTC+02:00)

Cosmos 2058 - Visible Passes

Search period start: 30 August 2016 00:00
Search period end: 09 September 2016 00:00
Orbit: 565 x 586 km, 82.5° (Epoch: 29 August)

Date Brightness Start Highest point End Pass type
(mag) Time Alt. Az. Time Alt. Az. Time Alt. Az.
30 Aug 6.0 00:56:18 10° N 00:56:42 12° N 00:56:42 12° N visible
31 Aug 6.1 00:59:50 10° N 01:00:08 12° N 01:00:08 12° N visible
01 Sep 6.1 01:03:25 10° N 01:03:35 11° N 01:03:35 11° N visible
02 Sep 6.2 01:07:02 10° NNW 01:07:03 10° NNW 01:07:03 10° NNW visible
